Location: Montreal
(45.5000°N, 73.5830°W)
Time: 08:46:57
(UTC-04:00)

Envisat - Visible Passes

Search period start: 18 July 2018 00:00
Search period end: 28 July 2018 00:00
Orbit: 764 x 766 km, 98.2° (Epoch: 18 July)

Date Brightness Start Highest point End Pass type
(mag) Time Alt. Az. Time Alt. Az. Time Alt. Az.
20 Jul 5.4 21:10:17 10° SW 21:14:10 22° W 21:18:04 10° NW visible
22 Jul 5.8 21:37:52 10° WSW 21:40:03 13° W 21:42:13 10° WNW visible
25 Jul 5.7 21:25:40 10° SW 21:28:44 16° W 21:31:50 10° NW visible
